DELTA 2 R/B

Last updated on Wed Jul 02 2025 00:02:14 GMT+0000 (Coordinated Universal Time)

1 25876U 99041E 25182.39698498 .00000596 00000+0 13537-3 0 9996 2 25876 51.7627 224.1235 0506563 327.3539 29.6991 14.10765271327545
UTC large
Height (km)
Speed (km/s)
/
Latitude / Longitude
Inclination (degrees)
Orbital Period (minutes)
Azimuth
Elevation
Range (km)
Doppler Factor

Next 0 passes for location: London (51.5072 / 0.1276)

Sorry there are no passes over London.